Sigfox identifier Datetime Temperature Humidity SNR
003C0EF5 2018-10-09 08:54:48 21 39 18.4
003C0EF5 2018-10-09 07:52:46 21 38 18.7
003C0EF5 2018-10-09 06:50:38 21 38 18.8
003C0EF5 2018-10-09 05:48:35 21 38 19.2
003C0EF5 2018-10-09 04:46:31 21 38 19.3
003C0EF5 2018-10-09 01:40:16 21 37 19.8
003C0EF5 2018-10-09 00:38:09 21 37 20.1
003C0EF5 2018-10-08 23:36:06 21 37 20.1
003C0EF5 2018-10-08 22:34:01 21 36 20.2
003C0EF5 2018-10-08 21:31:54 21.1 36 20.3
003C0EF5 2018-10-08 20:29:48 21.2 36 20.2
003C0EF5 2018-10-08 19:27:44 21.1 36 20.3
003C0EF5 2018-10-08 18:25:40 21.1 36 20.4
003C0EF5 2018-10-08 17:23:35 21 35 20.4
003C0EF5 2018-10-08 16:21:31 21 35 20.6
003C0EF5 2018-10-08 14:17:22 20.8 34 20.8
003C0EF5 2018-10-08 13:15:20 20.8 34 21
003C0EF5 2018-10-08 12:13:15 20.8 34 20.9
003C0EF5 2018-10-08 11:11:10 20.6 34 21.1
003C0EF5 2018-10-08 10:09:06 20.6 34 21.2
003C0EF5 2018-10-08 09:07:02 20.6 35 21.4
003C0EF5 2018-10-08 08:05:02 20.6 35 21.3
003C0EF5 2018-10-08 07:02:52 20.6 35 21.4
003C0EF5 2018-10-08 06:00:46 20.6 36 21.2
003C0EF5 2018-10-08 04:58:41 20.6 36 21.2
003C0EF5 2018-10-08 03:56:35 20.6 36 21.3
003C0EF5 2018-10-08 02:54:30 20.6 36 21.1
003C0EF5 2018-10-08 01:52:26 20.6 36 20.9
003C0EF5 2018-10-08 00:50:22 20.7 37 20.8
003C0EF5 2018-10-07 23:48:16 20.8 37 20.8
003C0EF5 2018-10-07 22:46:10 20.7 37 20.7
003C0EF5 2018-10-07 21:44:03 20.8 37 20.4
003C0EF5 2018-10-07 20:42:00 20.8 37 20.1
003C0EF5 2018-10-07 19:39:53 20.8 37 20
003C0EF5 2018-10-07 18:37:48 20.8 37 20.2
003C0EF5 2018-10-07 17:35:41 20.8 37 20.2
003C0EF5 2018-10-07 16:33:35 20.8 37 19.9
003C0EF5 2018-10-07 15:31:29 20.8 37 21.3
003C0EF5 2018-10-07 14:29:24 20.8 37 21.2
003C0EF5 2018-10-07 13:27:20 20.8 38 21.2
003C0EF5 2018-10-07 12:25:09 20.8 38 21
003C0EF5 2018-10-07 11:23:03 20.8 38 21
003C0EF5 2018-10-07 10:20:57 20.8 38 21
003C0EF5 2018-10-07 09:18:51 20.8 38 20.9
003C0EF5 2018-10-07 08:16:44 20.8 38 20.9
003C0EF5 2018-10-07 07:14:39 20.9 38 20.6
003C0EF5 2018-10-07 06:12:32 20.8 38 20.5
003C0EF5 2018-10-07 05:10:23 20.8 38 20.3
003C0EF5 2018-10-07 04:08:18 20.9 38 20.4
003C0EF5 2018-10-07 03:06:11 21 38 20.3
003C0EF5 2018-10-07 02:04:05 20.9 39 20
003C0EF5 2018-10-07 01:01:58 21 39 20.1
003C0EF5 2018-10-06 23:59:52 21 39 20.2
003C0EF5 2018-10-06 22:57:48 21 38 20.3
003C0EF5 2018-10-06 21:55:43 21 39 20.3
003C0EF5 2018-10-06 20:53:41 21 39 20.4
003C0EF5 2018-10-06 19:51:35 21 39 20.6
003C0EF5 2018-10-06 18:49:25 21 39 20.8
003C0EF5 2018-10-06 17:47:17 21 39 21
003C0EF5 2018-10-06 16:45:11 21 39 20.8
003C0EF5 2018-10-06 15:43:05 21 39 21
003C0EF5 2018-10-06 14:40:58 21 39 21
003C0EF5 2018-10-06 13:38:51 21 39 19.3
003C0EF5 2018-10-06 12:36:39 21 39 19.3
003C0EF5 2018-10-06 11:34:31 21 39 19.1
003C0EF5 2018-10-06 10:32:24 21 39 19.4
003C0EF5 2018-10-06 09:30:17 21 39 19.1
003C0EF5 2018-10-06 08:28:14 21 40 19.2
003C0EF5 2018-10-06 07:26:04 21 40 19.1
003C0EF5 2018-10-06 06:23:57 21 40 18.9
003C0EF5 2018-10-06 05:21:52 21.2 40 18.9
003C0EF5 2018-10-06 04:19:42 21.3 40 18.8
003C0EF5 2018-10-06 03:17:35 21.3 40 18.7
003C0EF5 2018-10-06 02:15:28 21.3 41 18.5
003C0EF5 2018-10-06 01:13:19 21.3 41 18.5
003C0EF5 2018-10-06 00:11:11 21.3 41 18.5
003C0EF5 2018-10-05 23:09:04 21.4 41 18.2
003C0EF5 2018-10-05 22:06:56 21.4 41 18
003C0EF5 2018-10-05 21:04:49 21.5 41 17.5
003C0EF5 2018-10-05 20:02:42 21.5 41 17.4
003C0EF5 2018-10-05 19:00:35 21.5 41 17.2
003C0EF5 2018-10-05 17:58:28 21.5 42 16.7
003C0EF5 2018-10-05 16:56:22 21.5 42 16.3
003C0EF5 2018-10-05 15:54:17 21.5 41 15.7
003C0EF5 2018-10-05 14:52:08 21.4 41 15.6
003C0EF5 2018-10-05 13:49:56 21.3 41 15.1
003C0EF5 2018-10-05 12:47:49 21.3 41 15.4
003C0EF5 2018-10-05 11:45:41 21.3 42 15.5
003C0EF5 2018-10-05 10:43:36 21 37 15.4
003C0EF5 2018-10-05 09:41:28 20.9 35 15.7
003C0EF5 2018-10-05 08:39:22 20.8 33 15.1
003C0EF5 2018-10-05 07:37:17 20.7 30 15.5
003C0EF5 2018-10-05 06:35:12 20.7 29 15.3
003C0EF5 2018-10-05 05:33:10 20.6 28 15.6
003C0EF5 2018-10-05 04:31:03 20.7 28 15.4
003C0EF5 2018-10-05 03:28:58 20.8 28 15.8
003C0EF5 2018-10-05 02:26:52 20.8 28 15.9
003C0EF5 2018-10-05 01:24:46 20.8 28 16.1
003C0EF5 2018-10-05 00:22:39 20.9 29 16.3
003C0EF5 2018-10-04 23:20:32 21 29 16.5
003C0EF5 2018-10-04 22:18:24 21 29 16.7
003C0EF5 2018-10-04 21:16:17 21 28 16.7
003C0EF5 2018-10-04 20:14:09 21 28 18.2
003C0EF5 2018-10-04 19:12:02 21 28 19.1
003C0EF5 2018-10-04 18:09:56 20.9 28 19.3
003C0EF5 2018-10-04 17:07:53 20.8 29 19.1
003C0EF5 2018-10-04 16:05:44 20.6 29 19.2
003C0EF5 2018-10-04 15:03:31 20.5 29 19.4
003C0EF5 2018-10-04 12:59:19 20.4 28 19.5
003C0EF5 2018-10-04 11:57:12 20.2 30 19.7
003C0EF5 2018-10-04 10:55:00 20.2 29 19.8
003C0EF5 2018-10-04 09:52:49 20.1 32 19.9
003C0EF5 2018-10-04 08:50:39 20 31 20.1
003C0EF5 2018-10-04 07:48:23 20 31 20.3
003C0EF5 2018-10-04 06:46:10 20 36 20.3
003C0EF5 2018-10-04 05:43:59 20 37 20.6
003C0EF5 2018-10-04 04:41:48 20.1 37 20.7
003C0EF5 2018-10-04 03:39:35 20.1 38 20.9
003C0EF5 2018-10-04 02:37:28 20.2 38 20.9
003C0EF5 2018-10-04 01:35:17 20.2 39 21.3
003C0EF5 2018-10-04 00:33:07 20.2 39 21.4
003C0EF5 2018-10-03 23:30:54 20.2 40 21.8
003C0EF5 2018-10-03 22:28:41 20.2 40 22.1
003C0EF5 2018-10-03 21:26:31 20.2 41 22.5
003C0EF5 2018-10-03 20:24:12 20.3 41 22.9
003C0EF5 2018-10-03 19:22:03 20.2 42 23.4
003C0EF5 2018-10-03 18:19:46 20.2 40 24.1
003C0EF5 2018-10-03 17:17:33 20.4 42 22.5
003C0EF5 2018-10-03 16:15:18 20.6 44 18.4
003C0EF5 2018-10-03 14:10:48 20.4 47 18.2
003C0EF5 2018-10-03 13:08:29 20.1 53 0